Location: Palermo
(38.1157°N, 13.3613°E)
Time: 15:53:58
(UTC+02:00)

ISS - Visible Passes

Search period start: 22 October 2019 00:00
Search period end: 31 October 2019 23:00
Orbit: 411 x 421 km, 51.6° (Epoch: 22 October)

Date Brightness Start Highest point End Pass type
(mag) Time Alt. Az. Time Alt. Az. Time Alt. Az.
22 Oct -1.3 06:48:12 10° S 06:50:59 24° SE 06:53:48 10° ENE visible
23 Oct -0.7 06:00:49 10° SSE 06:02:36 14° SE 06:04:22 10° E visible
24 Oct -3.6 06:47:02 10° SW 06:50:23 79° SE 06:53:45 10° NE visible
25 Oct -2.6 05:59:32 16° SSW 06:01:52 41° SE 06:05:03 10° ENE visible
26 Oct -1.4 05:13:48 22° ESE 05:13:48 22° ESE 05:16:04 10° ENE visible
26 Oct -3.0 06:46:49 10° WSW 06:49:58 36° NNW 06:53:07 10° NE visible
27 Oct -3.8 05:00:47 53° W 05:01:17 62° NW 05:04:38 10° NE visible
28 Oct -1.4 04:14:38 23° ENE 04:14:38 23° ENE 04:16:02 10° NE visible
28 Oct -1.9 05:47:33 11° WNW 05:49:42 18° NNW 05:52:06 10° NNE visible
29 Oct -2.3 05:01:15 25° NNW 05:01:15 25° NNW 05:03:46 10° NNE visible
30 Oct -0.8 04:14:50 13° NE 04:14:50 13° NE 04:15:19 10° NE visible
30 Oct -1.4 05:48:30 10° NW 05:49:35 11° NNW 05:50:41 10° N visible
31 Oct -1.4 05:01:14 14° N 05:01:14 14° N 05:02:33 10° NNE visible
